This is the latest recevied weather packets stored in our database for station/object SV4JYD-14. If no packets are shown the sender has not sent any weather packets the latest 10 day(s).
| Time | Temp. | Humidity | Pressure | Rain* | Wind** | Luminosity | Snow |
|---|---|---|---|---|---|---|---|
| 1777832126 | 12.22° C | 65% | 1014 hPa | 0 mm | - | - | - |
| 1777831225 | 12.78° C | 65% | 1013 hPa | 0 mm | - | - | - |
| 1777830325 | 12.22° C | 64% | 1013 hPa | 0 mm | - | - | - |
| 1777829425 | 12.22° C | 64% | 1013 hPa | 0 mm | - | - | - |
| 1777828524 | 12.22° C | 65% | 1013 hPa | 0 mm | - | - | - |
| 1777827624 | 12.22° C | 65% | 1012 hPa | 0 mm | - | - | - |
| 1777826724 | 12.22° C | 66% | 1012 hPa | 0 mm | - | - | - |
| 1777825824 | 12.22° C | 67% | 1012 hPa | 0 mm | - | - | - |
| 1777824923 | 12.22° C | 65% | 1013 hPa | 0 mm | - | - | - |
| 1777824023 | 12.22° C | 68% | 1012 hPa | 0 mm | - | - | - |
| 1777823123 | 11.67° C | 71% | 1012 hPa | 0 mm | - | - | - |
| 1777822223 | 12.22° C | 71% | 1012 hPa | 0 mm | - | - | - |
| 1777821322 | 12.22° C | 69% | 1012 hPa | 0 mm | - | - | - |
| 1777820422 | 11.67° C | 69% | 1012 hPa | 0 mm | - | - | - |
| 1777819522 | 11.67° C | 71% | 1012 hPa | 0 mm | - | - | - |
| 1777817690 | 11.67° C | 74% | 1012 hPa | 0 mm | - | - | - |
| 1777816789 | 11.67° C | 75% | 1012 hPa | 0 mm | - | - | - |
| 1777815889 | 11.67° C | 76% | 1012 hPa | 0 mm | - | - | - |
| 1777814989 | 11.11° C | 76% | 1012 hPa | 0 mm | - | - | - |
| 1777814089 | 11.11° C | 77% | 1012 hPa | 0.25 mm | - | - | - |
| 1777813188 | 10.56° C | 78% | 1011 hPa | 0.25 mm | - | - | - |
| 1777812288 | 10.56° C | 79% | 1012 hPa | 0.25 mm | - | - | - |
| 1777812069 | 10.56° C | 79% | 1012 hPa | 0.25 mm | - | - | - |
| 1777811168 | 10° C | 81% | 1012 hPa | 0.25 mm | - | - | - |
| 1777810268 | 10° C | 81% | 1012 hPa | 0 mm | - | - | - |
* Rain latest hour (hover to see other rain measurements)
** Current wind speed in m/s (hover to see current wind gust speed)